Wind_Speed
11 10 8 4 2 2 6 7 3 3 3 5 7 6 10 4 7 5 10 15 28 31 26 27 25 24 23 22 23 26 22 19 19 20 22 22 22 22 23 24 23 22 22 24 24 25 25 26 26
12 6 2 1 3 7 14 7 9 7 5 8 6 4 4 4 3 5 16 21 29 30 27 27 26 26 25 23 22 24 22 20 20 20 21 22 21 21 23 23 24 23 22 22 23 24 25 25 24
13 12 4 4 4 18 12 10 9 4 8 4 5 4 6 8 5 18 7 30 33 28 28 27 26 26 26 23 24 24 23 22 21 21 23 22 21 21 21 23 24 23 22 23 23 23 23 24 22
7 5 2 6 24 33 8 9 9 7 4 2 3 7 2 3 16 12 25 32 34 29 28 27 26 26 26 23 23 23 24 23 22 23 23 20 20 21 21 23 22 23 24 22 22 22 23 23 22
9 3 7 10 31 9 4 8 12 8 8 5 4 8 3 5 6 22 30 32 33 29 27 26 26 26 24 23 24 24 24 25 24 22 22 21 20 21 23 22 19 22 22 19 21 20 21 21 21
5 4 7 21 33 10 6 6 9 8 6 6 5 5 4 5 21 28 30 31 30 30 29 26 26 25 24 23 24 25 25 26 25 23 22 21 22 22 22 23 18 21 21 21 20 20 20 19 19
7 9 21 24 28 4 6 7 8 13 8 5 9 5 4 10 24 27 28 29 29 28 29 27 25 25 24 24 24 25 25 26 25 22 22 21 21 24 23 22 19 20 20 21 20 20 19 19 20
6 8 26 16 23 16 7 7 8 8 6 2 6 8 7 16 27 28 28 26 25 27 28 27 25 25 25 25 25 26 26 24 22 23 22 22 22 22 24 22 19 20 20 21 20 18 18 18 19
3 6 15 36 17 15 6 8 2 2 10 1 8 6 7 33 31 28 26 23 23 26 28 28 27 26 26 25 24 24 24 24 23 23 23 23 23 24 23 20 19 19 18 19 18 17 17 17 17
5 9 23 15 1 10 6 5 9 5 4 3 4 8 30 31 32 29 26 25 25 26 27 29 28 27 27 27 27 27 26 26 24 24 25 24 24 23 22 21 20 19 19 20 19 18 16 15 17
5 8 13 10 21 13 9 6 6 11 8 7 19 20 24 28 26 24 25 25 26 26 26 29 29 29 30 29 29 28 27 26 24 23 24 25 24 22 22 22 24 21 20 20 19 16 14 15 16
6 14 14 12 14 5 9 8 5 12 7 12 20 29 23 22 20 26 25 26 27 27 30 30 31 30 30 31 29 29 28 27 25 23 23 24 24 23 22 23 23 21 21 20 17 15 14 14 13
14 15 13 16 18 13 6 9 10 13 7 17 20 27 25 21 21 24 25 26 28 26 29 31 31 31 31 31 30 28 27 27 26 25 23 22 23 23 21 23 23 21 19 15 14 15 15 14 13
3 12 18 14 19 12 3 3 9 4 12 20 27 26 25 25 27 26 26 24 27 26 30 33 32 32 32 31 29 28 28 27 26 24 22 21 21 22 22 25 24 21 16 15 13 15 15 14 12
8 10 16 12 18 7 3 1 6 7 16 26 25 23 23 22 28 25 27 26 29 27 31 34 34 32 32 30 28 28 28 27 25 23 22 21 20 21 23 24 24 21 15 15 13 13 14 14 13
6 2 9 14 12 5 3 13 4 16 19 25 26 22 22 22 23 25 25 26 27 26 29 34 34 33 32 31 30 29 28 26 24 22 22 21 20 21 23 23 23 19 15 13 13 13 14 14 13
4 6 13 10 14 6 4 2 4 15 21 21 22 20 18 16 16 23 25 26 27 28 31 33 34 34 32 31 30 28 26 26 22 21 23 22 22 23 22 21 19 18 15 14 13 13 13 14 14
6 8 9 11 11 21 4 3 7 13 18 20 18 16 16 15 15 26 27 26 26 33 34 34 33 32 33 32 30 27 23 25 22 21 24 23 23 23 21 19 17 17 16 16 15 13 12 12 11
3 5 14 7 8 4 3 6 7 9 14 16 16 15 16 16 9 25 25 27 30 32 34 33 31 32 34 34 32 27 27 26 23 23 23 23 23 23 22 20 18 18 18 17 17 16 13 12 11
12 9 10 3 17 5 8 5 4 9 9 18 21 16 17 14 11 17 23 26 31 31 31 33 33 33 34 34 32 26 30 26 26 24 23 24 22 22 21 21 21 19 20 19 20 18 15 12 12
8 13 14 7 11 6 5 5 1 2 6 7 13 17 16 18 16 16 19 25 28 30 32 32 33 35 36 33 28 23 26 24 24 26 25 24 23 22 21 21 20 20 21 21 21 19 17 14 15
4 14 18 14 6 3 4 2 3 3 9 7 10 11 14 14 11 13 17 22 30 31 30 33 36 36 36 35 31 31 28 20 25 28 26 24 24 23 22 21 21 22 21 22 21 20 18 16 14
2 7 12 10 7 5 2 2 2 8 6 10 6 11 15 17 15 14 14 23 23 28 31 31 34 32 33 38 34 31 29 28 23 26 27 25 25 25 25 23 21 21 20 20 21 21 20 18 16
5 8 8 4 3 2 3 2 4 7 15 20 16 13 14 15 15 12 14 20 19 24 28 30 32 32 35 35 36 33 26 28 26 27 28 28 27 27 27 25 24 23 21 20 21 20 20 21 20
0 4 2 3 3 1 7 4 8 4 9 16 17 17 12 13 15 14 12 18 23 22 25 28 32 31 36 36 38 36 35 32 31 29 31 31 29 30 29 27 26 26 24 21 21 21 22 22 23
2 2 1 5 5 3 2 7 6 10 10 9 15 14 13 12 15 18 17 18 22 24 25 28 30 30 33 37 38 38 36 32 34 34 34 33 32 32 29 27 26 25 25 23 23 23 23 23 24
2 3 2 4 3 4 5 6 8 3 7 13 15 18 19 19 14 15 15 21 23 24 26 28 28 28 30 34 32 31 33 35 34 31 32 30 30 30 29 27 28 27 25 26 25 25 26 25 25
4 4 3 1 4 4 1 4 5 4 11 11 14 17 17 17 16 13 14 24 26 28 25 28 31 33 32 33 32 32 37 35 32 31 29 29 26 28 29 28 27 27 28 27 26 27 28 27 28
1 2 1 1 1 2 0 5 5 5 5 13 14 12 10 12 14 14 14 24 28 27 28 28 30 27 27 30 33 32 33 35 31 31 27 27 28 28 29 29 27 28 28 29 29 30 31 30 30
6 7 5 3 2 2 2 5 1 7 5 3 7 5 5 9 13 13 14 20 23 26 26 27 27 27 26 26 28 31 34 32 31 32 30 30 31 30 30 29 29 29 30 31 32 32 33 33 34
Wind_Direction
278 302 315 331 147 100 219 230 202 216 159 229 143 146 179 136 166 209 153 152 162 159 162 164 162 160 156 154 149 146 139 138 134 133 128 122 119 119 116 113 115 114 110 106 104 104 104 102 100
268 271 205 22 187 202 226 183 186 202 200 121 86 102 117 174 121 133 141 157 162 156 161 166 163 161 159 154 153 149 147 143 138 134 130 124 121 118 119 118 119 113 117 116 111 110 106 104 101
254 229 157 203 202 226 217 182 191 213 162 157 114 22 142 161 136 153 178 156 156 159 162 166 163 162 162 159 157 154 150 146 140 139 131 128 124 122 121 120 125 125 121 117 114 111 111 113 109
271 180 166 221 218 230 162 179 172 147 250 285 146 118 71 233 149 171 158 158 156 160 167 166 164 164 162 162 162 156 151 146 141 140 132 127 131 129 128 130 133 128 120 119 118 114 115 112 108
249 206 196 220 236 221 202 180 161 162 176 161 180 161 93 124 158 154 156 161 158 161 167 166 165 164 162 161 161 156 153 149 144 138 136 136 134 132 138 137 136 132 126 125 121 117 116 116 111
234 198 213 211 229 215 199 180 167 159 166 148 89 109 132 152 145 156 161 161 160 162 165 169 166 164 162 160 159 158 154 150 145 142 139 138 136 135 139 141 140 133 124 124 121 120 117 115 115
233 238 220 218 233 224 186 139 173 187 140 206 142 105 126 154 156 157 161 162 161 164 165 168 168 164 162 160 159 157 154 151 147 144 141 141 140 140 143 142 146 133 132 131 130 126 122 120 122
288 210 220 229 223 233 185 186 155 162 192 107 138 161 164 162 157 154 157 155 158 164 164 165 167 163 159 156 159 158 155 153 150 146 144 144 145 143 141 145 147 142 139 138 134 130 127 126 127
257 243 239 218 217 203 180 183 180 99 132 164 168 180 177 152 152 150 150 148 150 161 165 167 166 162 159 158 157 156 156 156 152 149 146 144 143 145 144 151 151 143 142 141 138 135 133 132 131
243 260 218 234 275 178 196 176 156 126 138 106 102 116 139 153 153 156 159 157 155 155 163 167 163 163 161 160 160 160 158 157 157 156 153 150 148 148 150 154 148 143 150 146 143 140 137 135 135
275 248 248 240 269 181 189 186 205 139 190 185 157 152 155 155 159 159 162 161 158 158 159 167 164 164 163 161 163 162 162 162 160 160 158 154 154 155 156 158 151 156 160 149 146 145 144 140 141
227 267 292 262 274 271 185 166 199 188 192 152 158 159 157 162 164 163 163 160 160 160 165 170 168 167 168 165 165 165 166 165 164 164 163 159 158 159 161 164 157 154 154 153 154 153 151 146 144
224 237 292 296 257 288 273 190 191 207 167 152 160 160 162 160 163 160 161 160 164 160 166 173 173 173 173 172 171 172 173 172 169 167 168 165 164 162 164 168 162 155 152 158 163 172 163 156 155
251 227 278 271 247 267 251 220 153 200 155 148 161 165 165 166 163 158 163 160 168 164 168 176 178 177 176 180 178 176 175 174 172 171 171 170 168 165 166 167 169 163 155 150 149 155 164 166 167
238 239 282 253 228 264 253 210 202 139 171 157 166 167 167 167 164 169 169 164 168 168 170 177 180 181 181 182 180 179 176 177 176 175 175 173 173 169 165 167 170 170 166 161 161 161 171 177 175
219 337 259 221 199 230 211 191 217 155 170 169 169 168 166 167 164 166 166 166 170 169 170 178 181 182 184 183 182 180 180 179 180 179 178 177 177 173 165 166 168 173 175 176 172 168 176 184 187
152 265 233 178 189 241 160 169 335 186 176 176 170 165 161 153 155 164 170 172 171 171 173 178 183 184 184 184 183 182 183 183 184 185 183 182 178 174 172 171 174 178 185 185 185 176 184 189 190
156 238 254 202 167 227 92 360 324 204 174 172 169 159 164 153 160 166 169 171 173 178 181 184 186 185 186 185 183 183 190 191 190 192 188 185 182 182 183 184 186 186 187 185 185 192 189 191 197
47 307 294 182 131 268 20 17 313 242 173 163 170 157 164 166 151 160 162 167 171 179 182 188 189 191 189 184 184 188 190 192 196 193 192 190 191 194 196 203 201 200 196 199 194 192 198 198 202
256 281 274 201 154 154 330 322 312 199 183 170 172 164 162 157 148 155 163 170 176 177 183 188 193 192 190 189 189 190 192 195 195 196 199 203 204 207 203 206 206 206 204 204 201 203 201 209 207
253 240 240 155 134 120 301 339 83 106 143 171 190 165 167 168 165 167 169 178 179 181 185 186 190 194 195 195 194 195 190 194 199 203 202 205 206 206 207 206 206 208 210 210 210 213 218 209 205
220 259 166 133 127 114 86 296 100 194 161 163 190 176 173 178 176 173 173 179 187 188 187 190 192 196 198 200 198 194 187 187 201 204 206 207 209 212 214 216 216 218 219 221 223 225 225 223 217
316 48 90 93 81 115 88 296 210 183 189 199 200 193 185 187 179 179 181 186 191 188 190 192 193 195 196 202 202 197 196 203 205 209 213 211 212 214 216 217 219 221 225 228 227 224 224 227 230
180 94 85 61 85 61 107 69 266 183 175 194 199 197 192 188 189 178 178 172 184 193 192 189 191 188 196 200 203 205 208 206 204 209 210 212 215 218 219 222 225 228 230 230 229 230 231 233 236
353 3 47 49 49 105 155 195 239 213 187 186 191 190 188 185 191 195 175 182 188 196 195 189 190 190 194 200 204 207 212 217 212 215 214 213 214 217 219 221 225 225 231 234 234 233 235 237 239
108 75 234 155 157 149 201 244 248 222 210 179 179 183 186 190 187 199 201 193 197 201 198 189 188 190 194 200 205 208 211 212 220 223 222 219 220 224 226 225 227 229 232 235 236 238 240 243 245
293 303 240 104 142 138 202 263 290 204 224 177 175 182 193 198 192 188 187 196 202 210 207 197 191 193 197 202 204 204 205 214 218 219 224 226 227 230 232 233 234 234 236 237 238 240 243 244 247
171 306 339 359 125 235 218 289 240 234 210 200 190 187 192 193 195 190 185 192 198 208 206 200 197 197 205 205 207 202 210 219 225 226 227 227 233 236 236 235 238 240 241 242 243 244 248 248 250
118 309 331 143 118 198 323 273 217 262 245 211 206 203 188 190 200 194 193 197 200 201 198 201 198 198 199 201 205 207 215 220 227 229 230 233 235 237 240 241 242 242 244 245 246 247 249 251 254
175 188 161 115 227 19 11 293 342 264 261 228 240 222 211 194 193 193 194 190 192 194 196 197 195 195 195 196 201 207 216 220 224 229 231 236 238 239 242 244 245 246 248 248 246 248 251 252 256
Height
785 785 786 786 801 803 798 787 776 778 774 765 761 768 772 772 781 797 774 778 782 787 793 798 802 807 810 812 813 814 818 822 824 826 826 828 830 831 832 834 835 837 838 840 842 843 843 845 847
783 784 787 792 803 799 773 774 774 769 762 763 764 766 770 776 774 775 777 778 784 787 792 799 802 806 809 812 815 816 819 822 825 828 829 830 831 833 835 836 837 839 841 843 844 845 847 848 850
781 783 789 787 793 774 760 764 765 759 761 761 767 767 766 773 772 774 776 777 784 790 792 798 802 805 809 813 816 818 820 823 826 829 830 832 834 836 838 839 839 841 844 845 847 848 850 851 852
781 780 784 782 763 729 753 760 755 760 759 757 761 770 768 768 767 771 776 779 782 790 795 798 802 806 810 814 817 819 821 825 828 830 832 834 836 838 840 841 841 843 846 848 850 851 852 854 855
778 770 770 769 749 748 749 745 746 756 756 758 760 770 771 768 770 772 776 781 783 789 796 800 803 807 811 814 818 820 822 825 829 832 834 836 838 840 842 844 845 846 848 851 853 855 856 857 858
770 757 757 758 739 748 746 742 746 748 754 759 761 766 769 768 769 774 778 781 786 790 794 802 804 807 811 815 818 821 824 827 829 832 835 837 839 841 844 846 848 849 850 852 856 858 859 860 862
760 753 749 745 740 752 746 745 748 745 756 756 755 767 767 768 769 775 780 784 787 791 795 801 806 809 812 816 820 823 825 828 830 833 836 839 841 842 845 848 850 852 853 854 857 860 862 862 864
763 756 751 742 738 746 742 743 741 743 753 748 751 764 767 763 769 775 781 785 789 793 797 801 807 810 813 816 821 823 826 829 831 834 836 840 843 845 846 849 852 854 856 857 859 860 863 864 866
768 755 739 732 739 739 740 742 739 739 744 748 749 751 749 756 765 774 780 784 789 795 798 802 806 811 814 818 822 825 828 830 833 835 837 840 844 847 849 851 853 856 858 859 861 864 866 867 869
766 744 742 739 733 735 737 737 740 744 747 748 750 749 753 759 762 769 776 780 787 792 798 802 806 811 814 819 822 825 828 831 834 836 837 840 844 848 852 853 855 858 860 862 864 866 868 870 871
767 755 746 734 739 728 733 734 735 742 747 739 743 750 752 757 763 770 777 780 785 792 798 802 806 811 813 818 822 826 828 831 835 838 839 841 844 849 853 855 857 858 861 863 866 868 870 871 873
771 754 751 742 743 731 727 723 733 731 729 732 735 741 750 757 763 767 774 780 785 790 797 802 805 810 814 818 822 826 829 832 835 839 841 842 844 848 853 857 859 860 862 865 868 871 873 874 876
761 757 757 747 740 736 727 723 724 728 725 727 735 740 745 753 763 769 774 779 785 790 796 802 805 808 813 818 821 825 829 832 835 838 841 843 845 847 852 857 861 863 865 867 869 872 874 876 878
752 754 754 750 739 737 729 725 719 724 725 729 733 739 744 751 755 766 772 777 784 788 794 800 805 808 813 817 821 824 828 832 835 838 842 844 846 848 852 857 861 864 867 869 871 873 875 878 879
751 756 758 736 736 728 724 723 724 719 727 725 734 739 744 749 755 761 769 776 781 787 793 798 803 808 812 817 821 825 828 833 836 838 842 845 847 848 851 856 862 865 868 870 872 874 877 878 880
755 756 750 737 726 725 719 719 716 716 725 725 730 738 743 749 755 762 769 775 780 786 791 797 802 807 812 816 821 824 829 832 836 839 842 845 848 850 852 856 860 866 868 871 872 874 877 879 880
758 748 734 724 725 728 721 719 720 715 720 727 730 736 742 750 757 762 768 774 778 784 791 796 800 805 810 815 820 825 830 832 836 840 841 845 847 850 853 856 860 863 868 870 873 875 877 879 880
754 752 731 720 726 735 719 727 723 716 717 725 731 736 740 746 752 759 766 772 778 783 789 796 801 805 810 815 820 824 830 833 835 839 841 844 847 850 854 857 860 862 866 869 871 874 877 879 880
743 745 733 717 720 735 722 728 726 718 717 726 730 736 739 744 752 758 763 769 777 783 786 793 800 804 808 813 817 822 825 830 834 838 842 844 847 850 852 857 858 862 863 868 870 872 875 877 879
749 745 738 716 724 745 737 733 729 723 722 722 729 734 738 746 752 757 762 768 773 779 785 791 797 803 807 811 815 819 823 828 832 837 839 843 846 850 849 855 857 860 863 866 868 870 873 876 877
738 739 732 719 730 738 743 728 727 727 725 728 730 730 736 739 748 754 759 763 770 775 781 787 793 799 804 810 814 819 823 827 831 835 837 840 843 848 850 853 855 858 861 864 866 868 870 873 876
728 727 712 721 724 734 744 737 730 730 728 729 736 734 734 739 746 751 754 761 765 772 778 784 789 794 801 807 812 814 816 822 825 830 834 837 841 845 848 851 852 856 858 861 864 866 868 871 873
730 713 716 723 727 735 752 748 737 733 731 731 731 736 734 737 741 747 753 757 765 771 775 781 786 792 797 801 807 811 814 819 822 828 833 835 839 842 845 848 851 853 856 858 861 863 865 868 870
724 719 722 728 731 739 745 749 739 732 729 736 730 732 733 736 739 746 753 757 764 769 772 776 782 788 792 798 802 806 810 815 820 825 828 831 835 839 842 844 848 851 853 855 858 861 863 864 866
725 731 739 745 751 744 746 750 737 722 718 719 723 726 732 733 737 744 750 754 759 765 768 772 777 782 786 793 798 799 806 810 815 820 823 827 830 833 837 840 843 846 850 853 856 857 859 861 863
728 734 735 750 743 743 746 735 717 705 707 711 714 721 728 730 732 738 742 748 754 760 764 767 771 776 780 786 792 797 802 807 812 815 818 823 826 830 834 837 840 842 846 849 852 854 855 857 858
727 733 728 733 748 740 738 725 702 701 706 703 710 715 718 723 728 732 738 745 751 756 759 763 767 772 777 782 789 793 798 803 806 810 815 818 823 827 831 834 837 839 842 844 846 849 850 852 853
729 727 728 733 741 727 731 729 710 707 704 701 702 705 711 717 722 727 733 738 744 750 755 759 762 765 772 778 783 787 793 798 802 806 811 814 818 823 826 829 831 834 837 840 841 844 845 847 847
735 737 733 737 737 735 727 716 707 703 702 698 697 701 707 714 719 723 726 732 738 744 748 753 756 762 768 773 778 783 788 794 799 803 805 810 814 817 820 823 826 829 831 833 835 837 839 841 842
726 729 731 741 735 746 743 719 704 711 708 702 703 704 708 710 714 718 723 728 733 737 743 747 752 758 764 769 773 778 783 788 793 798 801 805 808 811 815 818 821 823 824 826 827 830 833 835 836